Weather History for Benson, MN

Change the Weather History Date:

Wednesday, June 11, 2014

  Actual Average Record
Temperature  
Mean Temperature 68 °F -  
Max Temperature 80 °F 78 °F 96 °F (1956)
Min Temperature 57 °F 56 °F 39 °F (1958)
Cooling Degree Days 4    
Growing Degree Days 18 (Base 50)    
Moisture  
Dew Point 58 °F    
Average Humidity 72    
Maximum Humidity 100    
Minimum Humidity 42    
Precipitation  
Precipitation 0.00 in - - ()
Sea Level Pressure  
Sea Level Pressure 29.75 in    
Wind  
Wind Speed 8 mph (SSW)    
Max Wind Speed 24 mph    
Max Gust Speed 31 mph    
Visibility 9 miles    
Events Rain , Thunderstorm    
Averages and records for this station are not official NWS values.
T = Trace of Precipitation, MM = Missing Value Source: NWS Daily Summary

Daily Weather History Graph

Daily Weather History Graph

Search for Another Location

Airport:

Trip Planner

Search our weather history database for the weather conditions in past years. The results will help you decide how hot, cold, wet, or windy it might be!

Date:

Astronomy

Jun. 11, 2014 Rise Set
Actual Time 5:34 AM CDT 9:10 PM CDT
Civil Twilight 4:56 AM CDT 9:48 PM CDT
Nautical Twilight 4:06 AM CDT 10:38 PM CDT
Astronomical Twilight 3:00 AM CDT 11:44 PM CDT
Moon 7:36 PM CDT (6/11) 4:30 AM CDT (6/11)
Length of Visible Light 16h 51m
Length of Day
15h 36m
Waxing Gibbous, 97% of the Moon is Illuminated
Jun 11
Waxing Gibbous
Jun 12
Full
Jun 19
Last Quarter
Jun 27
New
Jul 5
First Quarter

Hourly Weather History & Observations

Time (CDT) Temp. Heat Index Dew Point Humidity Pressure Visibility Wind Dir Wind Speed Gust Speed Precip Events Conditions
12:14 AM 66.2 °F - 55.4 °F 68% 29.84 in 10.0 mi SSE 6.9 mph - N/A   Clear
12:33 AM 66.2 °F - 55.4 °F 68% 29.85 in 10.0 mi SSE 6.9 mph - N/A   Clear
12:53 AM 66.2 °F - 55.4 °F 68% 29.85 in 10.0 mi SSE 3.5 mph - N/A   Clear
1:14 AM 64.4 °F - 55.4 °F 73% 29.85 in 10.0 mi SSE 3.5 mph - N/A   Clear
1:33 AM 64.4 °F - 55.4 °F 73% 29.84 in 10.0 mi SE 5.8 mph - N/A   Clear
1:54 AM 64.4 °F - 55.4 °F 73% 29.85 in 10.0 mi SE 3.5 mph - N/A   Scattered Clouds
2:14 AM 64.4 °F - 55.4 °F 73% 29.85 in 10.0 mi SE 3.5 mph - N/A   Overcast
2:33 AM 64.4 °F - 55.4 °F 73% 29.85 in 10.0 mi SE 6.9 mph - N/A   Scattered Clouds
2:54 AM 62.6 °F - 55.4 °F 77% 29.83 in 10.0 mi SE 6.9 mph - N/A   Scattered Clouds
3:14 AM 64.4 °F - 55.4 °F 73% 29.81 in 10.0 mi SE 8.1 mph - N/A   Scattered Clouds
3:33 AM 64.4 °F - 55.4 °F 73% 29.80 in 10.0 mi SSE 9.2 mph - N/A   Clear
3:54 AM 64.4 °F - 55.4 °F 73% 29.81 in 10.0 mi South 8.1 mph - N/A   Clear
4:14 AM 62.6 °F - 55.4 °F 77% 29.80 in 10.0 mi South 6.9 mph - N/A   Clear
4:33 AM 62.6 °F - 55.4 °F 77% 29.80 in 10.0 mi South 6.9 mph - N/A   Clear
4:54 AM 62.6 °F - 57.2 °F 82% 29.80 in 10.0 mi South 5.8 mph - N/A   Clear
5:14 AM 62.6 °F - 57.2 °F 82% 29.79 in 10.0 mi South 5.8 mph - N/A   Clear
5:33 AM 62.6 °F - 57.2 °F 82% 29.79 in 10.0 mi South 6.9 mph - N/A   Clear
5:54 AM 62.6 °F - 57.2 °F 82% 29.78 in 10.0 mi SSE 6.9 mph - N/A   Clear
6:14 AM 62.6 °F - 57.2 °F 82% 29.77 in 10.0 mi SSE 10.4 mph - N/A   Clear
6:33 AM 62.6 °F - 57.2 °F 82% 29.79 in 10.0 mi South 5.8 mph - N/A   Clear
6:54 AM 62.6 °F - 57.2 °F 82% 29.80 in 10.0 mi South 3.5 mph - N/A   Clear
7:13 AM 62.6 °F - 57.2 °F 82% 29.78 in 10.0 mi South 5.8 mph - N/A   Clear
7:54 AM 64.4 °F - 57.2 °F 77% 29.78 in 10.0 mi South 5.8 mph - N/A   Clear
8:13 AM 64.4 °F - 57.2 °F 77% 29.79 in 10.0 mi South 3.5 mph - N/A Rain Light Rain
8:34 AM 66.2 °F - 59.0 °F 78% 29.79 in 10.0 mi SSW 4.6 mph - N/A   Clear
8:53 AM 66.2 °F - 59.0 °F 78% 29.79 in 10.0 mi SSW 5.8 mph - N/A   Clear
9:34 AM 69.8 °F - 60.8 °F 73% 29.79 in 10.0 mi SW 5.8 mph - N/A   Clear
9:53 AM 69.8 °F - 60.8 °F 73% 29.79 in 10.0 mi WSW 8.1 mph - N/A   Clear
10:13 AM 71.6 °F - 60.8 °F 69% 29.78 in 10.0 mi WSW 6.9 mph - N/A   Clear
10:34 AM 73.4 °F - 60.8 °F 65% 29.77 in 10.0 mi WSW 6.9 mph - N/A   Clear
10:53 AM 73.4 °F - 60.8 °F 65% 29.77 in 10.0 mi WSW 10.4 mph - N/A   Clear
11:13 AM 75.2 °F - 60.8 °F 61% 29.76 in 10.0 mi SW 10.4 mph - N/A   Clear
11:34 AM 77.0 °F - 60.8 °F 57% 29.76 in 10.0 mi WSW 11.5 mph 18.4 mph N/A   Clear
11:53 AM 78.8 °F - 59.0 °F 51% 29.75 in 10.0 mi SW 13.8 mph - N/A   Clear
12:14 PM 78.8 °F - 60.8 °F 54% 29.75 in 10.0 mi SW 15.0 mph 18.4 mph N/A   Clear
12:33 PM 78.8 °F - 59.0 °F 51% 29.74 in 10.0 mi SW 13.8 mph 18.4 mph N/A   Clear
12:53 PM 80.6 °F 80.8 °F 57.2 °F 45% 29.74 in 10.0 mi WSW 15.0 mph 20.7 mph N/A   Clear
1:14 PM 80.6 °F 80.8 °F 57.2 °F 45% 29.73 in 10.0 mi WSW 17.3 mph 25.3 mph N/A   Clear
1:33 PM 80.6 °F 80.8 °F 57.2 °F 45% 29.73 in 10.0 mi WSW 15.0 mph - N/A   Scattered Clouds
1:53 PM 80.6 °F 80.8 °F 57.2 °F 45% 29.73 in 10.0 mi WSW 15.0 mph 21.9 mph N/A   Scattered Clouds
2:14 PM 78.8 °F - 55.4 °F 44% 29.72 in 10.0 mi WSW 13.8 mph 20.7 mph N/A   Mostly Cloudy
2:33 PM 80.6 °F 80.5 °F 55.4 °F 42% 29.71 in 10.0 mi WSW 15.0 mph - N/A   Mostly Cloudy
2:53 PM 80.6 °F 80.5 °F 55.4 °F 42% 29.71 in 10.0 mi WSW 15.0 mph 23.0 mph N/A   Scattered Clouds
3:14 PM 80.6 °F 80.5 °F 55.4 °F 42% 29.71 in 10.0 mi WSW 16.1 mph 26.5 mph N/A   Scattered Clouds
3:33 PM 80.6 °F 80.5 °F 55.4 °F 42% 29.70 in 10.0 mi WSW 13.8 mph 21.9 mph N/A   Scattered Clouds
3:53 PM 80.6 °F 80.5 °F 55.4 °F 42% 29.69 in 10.0 mi WSW 16.1 mph 21.9 mph N/A   Scattered Clouds
4:14 PM 80.6 °F 80.5 °F 55.4 °F 42% 29.69 in 10.0 mi SW 13.8 mph - N/A   Mostly Cloudy
4:33 PM 78.8 °F - 55.4 °F 44% 29.68 in 10.0 mi SW 17.3 mph - N/A   Mostly Cloudy
4:53 PM 78.8 °F - 55.4 °F 44% 29.66 in 10.0 mi SW 13.8 mph - N/A   Mostly Cloudy
5:14 PM 78.8 °F - 55.4 °F 44% 29.66 in 10.0 mi SW 11.5 mph 16.1 mph N/A Rain Light Rain
5:53 PM 77.0 °F - 55.4 °F 47% 29.64 in 10.0 mi SW 10.4 mph - N/A Rain Light Rain
6:14 PM 71.6 °F - 60.8 °F 69% 29.65 in 5.0 mi WSW 11.5 mph - N/A Rain , Thunderstorm Rain
6:33 PM 66.2 °F - 62.6 °F 88% 29.65 in 4.0 mi West 9.2 mph 17.3 mph N/A Rain , Thunderstorm Thunderstorms and Rain
6:53 PM 66.2 °F - 62.6 °F 88% 29.69 in 3.0 mi North 24.2 mph 31.1 mph N/A Rain , Thunderstorm Heavy Thunderstorms and Rain
7:14 PM 64.4 °F - 62.6 °F 94% 29.68 in 3.0 mi North 3.5 mph - N/A Rain Rain
7:33 PM 64.4 °F - 62.6 °F 94% 29.67 in 4.0 mi Calm Calm - N/A Rain , Thunderstorm Heavy Thunderstorms and Rain
7:53 PM 64.4 °F - 62.6 °F 94% 29.65 in 7.0 mi Calm Calm - N/A Rain , Thunderstorm Light Thunderstorms and Rain
8:13 PM 64.4 °F - 64.4 °F 100% 29.65 in 4.0 mi NE 3.5 mph - N/A Rain Light Rain
8:33 PM 66.2 °F - 64.4 °F 94% 29.65 in 7.0 mi Calm Calm - N/A   Scattered Clouds
8:54 PM 64.4 °F - 64.4 °F 100% 29.66 in 7.0 mi Calm Calm - N/A   Scattered Clouds
9:13 PM 64.4 °F - 62.6 °F 94% 29.66 in 4.0 mi Calm Calm - N/A   Scattered Clouds
9:33 PM 62.6 °F - 62.6 °F 100% 29.67 in 2.5 mi NNW 8.1 mph - N/A   Scattered Clouds
9:54 PM 62.6 °F - 62.6 °F 100% 29.69 in 10.0 mi NNW 9.2 mph - N/A   Scattered Clouds
10:13 PM 62.6 °F - 62.6 °F 100% 29.70 in 10.0 mi NNW 10.4 mph - N/A   Mostly Cloudy
10:33 PM 62.6 °F - 60.8 °F 94% 29.72 in 10.0 mi NNW 13.8 mph - N/A   Overcast
10:54 PM 60.8 °F - 57.2 °F 88% 29.72 in 10.0 mi NNW 21.9 mph 27.6 mph N/A   Light Drizzle
11:13 PM 59.0 °F - 57.2 °F 94% 29.72 in 10.0 mi North 21.9 mph 26.5 mph N/A   Overcast
11:34 PM 57.2 °F - 55.4 °F 94% 29.71 in 10.0 mi North 13.8 mph 23.0 mph N/A   Scattered Clouds
11:53 PM 57.2 °F - 55.4 °F 94% 29.73 in 10.0 mi North 21.9 mph 28.8 mph N/A   Scattered Clouds